Location: Milton Keynes
(52.0316°N, 0.7531°W)
Time: 01:12:19
(UTC+00:00)

N. Korean satellite - Pass Details

Date: 01 February 2019
Orbit: 457 x 510 km, 97.2° (Epoch: 18 February)

Event Time Altitude Azimuth Distance (km) Brightness Sun altitude
Rises 18:23:47 0° 205° (SSW) 2,609 10.8 -14.4°
Reaches altitude 10° 18:26:24 10° 225° (SW) 1,731 10.2 -14.8°
Maximum altitude 18:29:00 18° 269° (W) 1,315 9.9 -15.2°
Drops below altitude 10° 18:31:38 10° 314° (NW) 1,740 9.9 -15.6°
Sets 18:34:16 0° 334° (NNW) 2,628 10.5 -16.0°
